Clearfield, PA

3:27 AM EST on November 23, 2017 (GMT -0500)
Clearfield-Lawrence

Weather History for KFIG - July, 2013

Change the Weather History Date:

Sunday, July 28, 2013

  Actual Average (KDUJ) Record (KDUJ)
Temperature  
Mean Temperature 68 °F -  
Max Temperature 75 °F 78 °F 92 °F (1964)
Min Temperature 61 °F 58 °F 47 °F (1971)
Cooling Degree Days 4    
Growing Degree Days 18 (Base 50)    
Moisture  
Dew Point 60 °F    
Average Humidity 85    
Maximum Humidity 100    
Minimum Humidity 50    
Precipitation  
Precipitation 0.07 in - - ()
Sea Level Pressure  
Sea Level Pressure 29.93 in    
Wind  
Wind Speed 3 mph (WSW)    
Max Wind Speed 10 mph    
Max Gust Speed 16 mph    
Visibility 7 miles    
Events Fog , Rain    
Averages and records for this station are not official NWS values.
T = Trace of Precipitation, MM = Missing Value Source: NWS Daily Summary

Daily Weather History Graph

Daily Weather History Graph

Search for Another Location

Airport or City:

Trip Planner

Search our weather history database for the weather conditions in past years. The results will help you decide how hot, cold, wet, or windy it might be!

Date:

Astronomy

Jul. 28, 2013 Rise Set
Actual Time 6:05 AM EDT 8:33 PM EDT
Civil Twilight 5:34 AM EDT 9:05 PM EDT
Nautical Twilight 4:55 AM EDT 9:43 PM EDT
Astronomical Twilight 4:12 AM EDT 10:26 PM EDT
Moon 11:50 PM EDT (7/28) 12:50 PM EDT (7/28)
Length of Visible Light 15h 30m
Length of Day
14h 27m
Waning Gibbous, 61% of the Moon is Illuminated
Jul 28
Waning Gibbous
Jul 29
Last Quarter
Aug 6
New
Aug 14
First Quarter
Aug 20
Full

Hourly Weather History & Observations

Time (EDT) Temp. Dew Point Humidity Pressure Visibility Wind Dir Wind Speed Gust Speed Precip Events Conditions
12:19 AM 64.4 °F 62.6 °F 94% 29.91 in 10.0 mi Calm Calm - N/A   Mostly Cloudy
12:27 AM 64.4 °F 62.6 °F 94% 29.90 in 10.0 mi Calm Calm - N/A   Scattered Clouds
12:54 AM 64.0 °F 63.0 °F 96% 29.88 in 10.0 mi South 3.5 mph - N/A   Mostly Cloudy
1:46 AM 64.4 °F 62.6 °F 94% 29.89 in 10.0 mi South 6.9 mph - N/A   Overcast
1:54 AM 64.0 °F 63.0 °F 96% 29.89 in 10.0 mi West 8.1 mph - 0.00 in Rain Light Rain
2:14 AM 64.4 °F 62.6 °F 94% 29.90 in 10.0 mi WSW 3.5 mph - 0.00 in   Overcast
2:54 AM 64.0 °F 63.0 °F 96% 29.88 in 10.0 mi SSW 3.5 mph - 0.00 in   Overcast
3:18 AM 64.4 °F 62.6 °F 94% 29.91 in 10.0 mi Calm Calm - N/A   Overcast
3:32 AM 64.4 °F 62.6 °F 94% 29.91 in 10.0 mi Calm Calm - N/A   Overcast
3:49 AM 62.6 °F 62.6 °F 100% 29.91 in 5.0 mi Calm Calm - N/A   Overcast
3:54 AM 63.0 °F 62.1 °F 97% 29.89 in 5.0 mi Calm Calm - 0.00 in Rain Light Rain
4:09 AM 62.6 °F 62.6 °F 100% 29.90 in 6.0 mi North 4.6 mph - 0.00 in Rain Light Rain
4:42 AM 62.6 °F 62.6 °F 100% 29.91 in 8.0 mi WNW 4.6 mph - 0.00 in   Overcast
4:51 AM 64.4 °F 62.6 °F 94% 29.91 in 6.0 mi Calm Calm - 0.00 in   Overcast
4:54 AM 64.0 °F 63.0 °F 96% 29.89 in 6.0 mi WNW 3.5 mph - 0.00 in   Overcast
5:54 AM 64.0 °F 63.0 °F 96% 29.91 in 4.0 mi WSW 3.5 mph - 0.01 in Rain Rain
6:38 AM 64.4 °F 62.6 °F 94% 29.94 in 1.8 mi Calm Calm - 0.04 in Rain Rain
6:44 AM 64.4 °F 62.6 °F 94% 29.95 in 0.8 mi SSW 3.5 mph - 0.05 in Rain Light Rain
6:52 AM 64.4 °F 62.6 °F 94% 29.95 in 1.5 mi SSW 3.5 mph - 0.05 in Rain Light Rain
6:54 AM 64.0 °F 63.0 °F 96% 29.93 in 1.8 mi Calm Calm - 0.05 in Rain Light Rain
7:07 AM 64.4 °F 62.6 °F 94% 29.94 in 1.8 mi Calm Calm - 0.01 in Rain Light Rain
7:16 AM 62.6 °F 62.6 °F 100% 29.94 in 2.5 mi Calm Calm - 0.01 in Rain Light Rain
7:24 AM 62.6 °F 62.6 °F 100% 29.95 in 3.0 mi Calm Calm - 0.01 in   Overcast
7:31 AM 64.4 °F 62.6 °F 94% 29.95 in 1.8 mi South 3.5 mph - 0.01 in   Overcast
7:41 AM 64.4 °F 62.6 °F 94% 29.95 in 0.5 mi South 4.6 mph - 0.01 in Fog , Rain Light Rain
7:50 AM 62.6 °F 62.6 °F 100% 29.95 in 2.0 mi Variable 3.5 mph - 0.01 in Rain Light Rain
7:54 AM 63.0 °F 62.1 °F 97% 29.92 in 3.0 mi Calm Calm - 0.01 in Rain Light Rain
8:54 AM 63.0 °F 61.0 °F 93% 29.92 in 10.0 mi WSW 4.6 mph - 0.00 in Rain Light Rain
9:28 AM 62.6 °F 60.8 °F 94% 29.94 in 10.0 mi SW 4.6 mph - 0.00 in   Partly Cloudy
9:54 AM 64.0 °F 62.1 °F 93% 29.92 in 10.0 mi WSW 8.1 mph - 0.00 in   Partly Cloudy
10:54 AM 64.0 °F 60.1 °F 87% 29.92 in 10.0 mi SW 6.9 mph 16.1 mph N/A   Mostly Cloudy
11:54 AM 69.1 °F 59.0 °F 70% 29.93 in 10.0 mi SSW 10.4 mph - N/A   Scattered Clouds
12:54 PM 72.0 °F 55.0 °F 55% 29.93 in 10.0 mi West 6.9 mph - N/A   Mostly Cloudy
1:54 PM 72.0 °F 55.9 °F 57% 29.94 in 10.0 mi WSW 5.8 mph - N/A   Overcast
2:54 PM 75.0 °F 55.9 °F 51% 29.92 in 10.0 mi SW 9.2 mph - N/A   Partly Cloudy
3:54 PM 75.0 °F 57.0 °F 53% 29.92 in 10.0 mi WSW 10.4 mph - N/A   Mostly Cloudy
4:54 PM 75.0 °F 55.0 °F 50% 29.92 in 10.0 mi West 9.2 mph - N/A   Partly Cloudy
5:54 PM 73.9 °F 55.0 °F 52% 29.94 in 10.0 mi West 9.2 mph - N/A   Clear
6:54 PM 70.0 °F 54.0 °F 57% 29.95 in 10.0 mi Variable 5.8 mph - N/A   Partly Cloudy
7:54 PM 68.0 °F 55.0 °F 63% 29.96 in 10.0 mi West 5.8 mph - N/A   Clear
8:54 PM 66.0 °F 54.0 °F 65% 29.98 in 10.0 mi Calm Calm - N/A   Partly Cloudy
9:54 PM 63.0 °F 53.1 °F 70% 30.02 in 10.0 mi Calm Calm - N/A   Scattered Clouds
10:54 PM 62.1 °F 52.0 °F 70% 30.04 in 10.0 mi WSW 3.5 mph - N/A   Mostly Cloudy
11:54 PM 61.0 °F 53.1 °F 75% 30.05 in 10.0 mi SW 4.6 mph - N/A   Mostly Cloudy